| time (UTC) | temp F | wind direction | speed MPH | gust MPH | rain 1hr in | rain 24hr in | rain mn in | humidity % | barometer mb |
| 20260902010423 | 80 | 88 | 0.0 | 0.0 | 0.00 | 0.00 | 0.00 | 10 | 1010.3 |
| 20260902005922 | 81 | 136 | 0.0 | 1.0 | 0.00 | 0.00 | 0.00 | 10 | 1010.2 |
| 20260902005416 | 81 | 161 | 0.0 | 0.0 | 0.00 | 0.00 | 0.00 | 10 | 1010.5 |
| 20260902004912 | 81 | 152 | 0.0 | 0.0 | 0.00 | 0.00 | 0.00 | 10 | 1010.3 |
| 20260902004411 | 81 | 163 | 0.0 | 0.0 | 0.00 | 0.00 | 0.00 | 10 | 1010.8 |
| 20260902003907 | 81 | 167 | 0.0 | 2.0 | 0.00 | 0.00 | 0.00 | 10 | 1010.7 |
| 20260902003402 | 81 | 139 | 0.0 | 2.0 | 0.00 | 0.00 | 0.00 | 10 | 1010.5 |
| 20260902002857 | 81 | 219 | 0.0 | 1.0 | 0.00 | 0.00 | 0.00 | 10 | 1010.5 |
| 20260902002356 | 82 | 155 | 0.0 | 0.0 | 0.00 | 0.00 | 0.00 | 10 | 1010.5 |
| 20260902001852 | 81 | 154 | 1.0 | 1.0 | 0.00 | 0.00 | 0.00 | 10 | 1010.7 |
| 20260902001347 | 82 | 182 | 0.0 | 0.0 | 0.00 | 0.00 | 0.00 | 10 | 1010.5 |
| 20260902000841 | 82 | 195 | 0.0 | 1.0 | 0.00 | 0.00 | 0.00 | 10 | 1010.9 |
| 20260902000337 | 82 | 148 | 0.0 | 0.0 | 0.00 | 0.00 | 0.00 | 10 | 1010.8 |
| 20260901235832 | 82 | 149 | 0.0 | 1.0 | 0.00 | 0.00 | 0.00 | 10 | 1010.8 |
| 20260901235331 | 82 | 141 | 0.0 | 1.0 | 0.00 | 0.00 | 0.00 | 10 | 1010.7 |
| 20260901234826 | 82 | 209 | 0.0 | 0.0 | 0.00 | 0.00 | 0.00 | 10 | 1010.8 |
| 20260901234322 | 82 | 172 | 0.0 | 0.0 | 0.00 | 0.00 | 0.00 | 10 | 1010.5 |
| 20260901233816 | 82 | 118 | 0.0 | 0.0 | 0.00 | 0.00 | 0.00 | 10 | 1010.8 |
| 20260901233311 | 82 | 161 | 0.0 | 0.0 | 0.00 | 0.00 | 0.00 | 10 | 1011.0 |
| 20260901232807 | 82 | 180 | 0.0 | 0.0 | 0.00 | 0.00 | 0.00 | 10 | 1010.9 |
| 20260901232301 | 82 | 168 | 0.0 | 0.0 | 0.00 | 0.00 | 0.00 | 10 | 1011.0 |
| 20260901231758 | 82 | 174 | 0.0 | 0.0 | 0.00 | 0.00 | 0.00 | 10 | 1011.1 |
| 20260901231254 | 82 | 149 | 0.0 | 1.0 | 0.00 | 0.00 | 0.00 | 10 | 1011.0 |
| 20260901230750 | 83 | 183 | 0.0 | 0.0 | 0.00 | 0.00 | 0.00 | 10 | 1011.1 |
| 20260901230249 | 82 | 238 | 0.0 | 0.0 | 0.00 | 0.00 | 0.00 | 10 | 1011.0 |
| 20260901225744 | 82 | 203 | 0.0 | 0.0 | 0.00 | 0.00 | 0.00 | 10 | 1011.4 |
| 20260901225238 | 83 | 197 | 0.0 | 2.0 | 0.00 | 0.00 | 0.00 | 10 | 1011.2 |
| 20260901224734 | 82 | 199 | 0.0 | 0.0 | 0.00 | 0.00 | 0.00 | 10 | 1011.1 |
| 20260901224230 | 83 | 179 | 0.0 | 1.0 | 0.00 | 0.00 | 0.00 | 10 | 1011.5 |
| 20260901223727 | 83 | 195 | 0.0 | 0.0 | 0.00 | 0.00 | 0.00 | 10 | 1011.2 |
| 20260901223221 | 83 | 208 | 0.0 | 1.0 | 0.00 | 0.00 | 0.00 | 10 | 1011.5 |
| 20260901222717 | 84 | 173 | 0.0 | 0.0 | 0.00 | 0.00 | 0.00 | 10 | 1011.3 |
| 20260901222213 | 83 | 230 | 0.0 | 0.0 | 0.00 | 0.00 | 0.00 | 10 | 1011.8 |
| 20260901221709 | 83 | 188 | 0.0 | 0.0 | 0.00 | 0.00 | 0.00 | 10 | 1011.4 |
| 20260901221205 | 83 | 207 | 0.0 | 0.0 | 0.00 | 0.00 | 0.00 | 10 | 1011.8 |
| 20260901220703 | 82 | 222 | 0.0 | 0.0 | 0.00 | 0.00 | 0.00 | 10 | 1011.4 |
| 20260901220203 | 82 | 167 | 0.0 | 0.0 | 0.00 | 0.00 | 0.00 | 10 | 1011.6 |
| 20260901215702 | 82 | 151 | 0.0 | 0.0 | 0.00 | 0.00 | 0.00 | 10 | 1011.9 |
| 20260901215202 | 82 | 182 | 0.0 | 0.0 | 0.00 | 0.00 | 0.00 | 10 | 1012.0 |
| 20260901214659 | 82 | 210 | 0.0 | 1.0 | 0.00 | 0.00 | 0.00 | 10 | 1011.6 |
| 20260901214149 | 82 | 208 | 0.0 | 0.0 | 0.00 | 0.00 | 0.00 | 10 | 1012.0 |
| 20260901213649 | 82 | 168 | 0.0 | 0.0 | 0.00 | 0.00 | 0.00 | 10 | 1012.2 |
| 20260901213143 | 82 | 173 | 0.0 | 2.0 | 0.00 | 0.00 | 0.00 | 10 | 1012.2 |
| 20260901212643 | 81 | 197 | 0.0 | 2.0 | 0.00 | 0.00 | 0.00 | 10 | 1012.3 |
| 20260901212139 | 82 | 203 | 0.0 | 2.0 | 0.00 | 0.00 | 0.00 | 10 | 1012.3 |
| 20260901211634 | 81 | 185 | 0.0 | 2.0 | 0.00 | 0.00 | 0.00 | 10 | 1012.3 |
| 20260901211131 | 80 | 175 | 1.0 | 2.0 | 0.00 | 0.00 | 0.00 | 10 | 1012.3 |
| 20260901210626 | 81 | 177 | 0.0 | 1.0 | 0.00 | 0.00 | 0.00 | 10 | 1012.4 |
| 20260901210122 | 81 | 172 | 0.0 | 1.0 | 0.00 | 0.00 | 0.00 | 10 | 1012.4 |
| 20260901205617 | 82 | 153 | 0.0 | 2.0 | 0.00 | 0.00 | 0.00 | 10 | 1012.4 |
| 20260901205111 | 81 | 174 | 0.0 | 2.0 | 0.00 | 0.00 | 0.00 | 10 | 1012.6 |
| 20260901204607 | 81 | 169 | 0.0 | 2.0 | 0.00 | 0.00 | 0.00 | 10 | 1012.7 |
| 20260901204102 | 80 | 179 | 1.0 | 2.0 | 0.00 | 0.00 | 0.00 | 10 | 1012.7 |
| 20260901203601 | 80 | 169 | 0.0 | 2.0 | 0.00 | 0.00 | 0.00 | 10 | 1012.7 |
| 20260901203056 | 80 | 166 | 0.0 | 0.0 | 0.00 | 0.00 | 0.00 | 10 | 1012.7 |
| 20260901202556 | 81 | 143 | 1.0 | 3.0 | 0.00 | 0.00 | 0.00 | 10 | 1012.9 |
| 20260901202053 | 81 | 171 | 0.0 | 0.0 | 0.00 | 0.00 | 0.00 | 10 | 1013.1 |
| 20260901201548 | 81 | 167 | 0.0 | 0.0 | 0.00 | 0.00 | 0.00 | 10 | 1013.0 |
| 20260901201047 | 82 | 129 | 0.0 | 2.0 | 0.00 | 0.00 | 0.00 | 10 | 1013.1 |
| 20260901200547 | 81 | 162 | 0.0 | 0.0 | 0.00 | 0.00 | 0.00 | 10 | 1013.1 |
| 20260901200042 | 80 | 157 | 0.0 | 3.0 | 0.00 | 0.00 | 0.00 | 10 | 1013.4 |
| 20260901195539 | 80 | 167 | 0.0 | 2.0 | 0.00 | 0.00 | 0.00 | 10 | 1013.2 |
| 20260901195034 | 80 | 180 | 0.0 | 2.0 | 0.00 | 0.00 | 0.00 | 10 | 1013.0 |
| 20260901194529 | 79 | 164 | 1.0 | 3.0 | 0.00 | 0.00 | 0.00 | 10 | 1013.0 |
| 20260901194025 | 80 | 171 | 0.0 | 2.0 | 0.00 | 0.00 | 0.00 | 10 | 1013.5 |
| 20260901193524 | 79 | 169 | 0.0 | 0.0 | 0.00 | 0.00 | 0.00 | 10 | 1013.3 |
| 20260901193020 | 79 | 178 | 1.0 | 2.0 | 0.00 | 0.00 | 0.00 | 10 | 1013.3 |
| 20260901192514 | 80 | 127 | 0.0 | 3.0 | 0.00 | 0.00 | 0.00 | 10 | 1013.6 |
| 20260901192011 | 80 | 129 | 0.0 | 1.0 | 0.00 | 0.00 | 0.00 | 10 | 1013.5 |
| 20260901191506 | 79 | 181 | 1.0 | 2.0 | 0.00 | 0.00 | 0.00 | 10 | 1013.5 |
| 20260901191002 | 79 | 141 | 0.0 | 2.0 | 0.00 | 0.00 | 0.00 | 10 | 1013.5 |
| 20260901190457 | 78 | 177 | 0.0 | 0.0 | 0.00 | 0.00 | 0.00 | 10 | 1013.6 |
| 20260901185955 | 78 | 163 | 0.0 | 3.0 | 0.00 | 0.00 | 0.00 | 10 | 1013.7 |
| 20260901185449 | 78 | 201 | 0.0 | 3.0 | 0.00 | 0.00 | 0.00 | 10 | 1013.9 |
| 20260901184949 | 77 | 170 | 0.0 | 2.0 | 0.00 | 0.00 | 0.00 | 10 | 1014.1 |
| 20260901184444 | 78 | 171 | 1.0 | 2.0 | 0.00 | 0.00 | 0.00 | 10 | 1014.2 |
| 20260901183939 | 78 | 181 | 0.0 | 2.0 | 0.00 | 0.00 | 0.00 | 10 | 1013.9 |
| 20260901183439 | 77 | 165 | 0.0 | 2.0 | 0.00 | 0.00 | 0.00 | 10 | 1014.3 |
| 20260901182935 | 77 | 147 | 0.0 | 2.0 | 0.00 | 0.00 | 0.00 | 10 | 1014.2 |
| 20260901182431 | 77 | 156 | 1.0 | 3.0 | 0.00 | 0.00 | 0.00 | 10 | 1014.4 |
| 20260901181925 | 76 | 182 | 0.0 | 1.0 | 0.00 | 0.00 | 0.00 | 10 | 1014.3 |
| 20260901181420 | 75 | 179 | 0.0 | 0.0 | 0.00 | 0.00 | 0.00 | 10 | 1014.4 |
| 20260901180919 | 75 | 193 | 1.0 | 3.0 | 0.00 | 0.00 | 0.00 | 10 | 1014.8 |
| 20260901180418 | 75 | 187 | 1.0 | 2.0 | 0.00 | 0.00 | 0.00 | 10 | 1014.5 |
| 20260901175917 | 75 | 167 | 1.0 | 2.0 | 0.00 | 0.00 | 0.00 | 10 | 1014.5 |
| 20260901175412 | 74 | 210 | 0.0 | 0.0 | 0.00 | 0.00 | 0.00 | 10 | 1014.7 |
| 20260901174907 | 74 | 146 | 0.0 | 1.0 | 0.00 | 0.00 | 0.00 | 10 | 1014.6 |
| 20260901174403 | 73 | 183 | 0.0 | 2.0 | 0.00 | 0.00 | 0.00 | 10 | 1015.0 |
| 20260901173858 | 73 | 157 | 0.0 | 1.0 | 0.00 | 0.00 | 0.00 | 10 | 1014.6 |
| 20260901173353 | 73 | 174 | 0.0 | 3.0 | 0.00 | 0.00 | 0.00 | 10 | 1014.8 |
| 20260901172849 | 73 | 166 | 0.0 | 1.0 | 0.00 | 0.00 | 0.00 | 10 | 1014.7 |
| 20260901172349 | 73 | 168 | 0.0 | 0.0 | 0.00 | 0.00 | 0.00 | 10 | 1014.6 |
| 20260901171847 | 72 | 210 | 0.0 | 0.0 | 0.00 | 0.00 | 0.00 | 10 | 1015.0 |
| 20260901171346 | 72 | 173 | 0.0 | 0.0 | 0.00 | 0.00 | 0.00 | 10 | 1015.0 |
| 20260901170845 | 71 | 146 | 0.0 | 0.0 | 0.00 | 0.00 | 0.00 | 10 | 1015.1 |
| 20260901170340 | 71 | 143 | 0.0 | 1.0 | 0.00 | 0.00 | 0.00 | 10 | 1015.0 |
| 20260901165834 | 72 | 174 | 0.0 | 0.0 | 0.00 | 0.00 | 0.00 | 10 | 1015.1 |
| 20260901165328 | 71 | 171 | 1.0 | 2.0 | 0.00 | 0.00 | 0.00 | 10 | 1015.0 |
| 20260901164825 | 71 | 174 | 1.0 | 2.0 | 0.00 | 0.00 | 0.00 | 10 | 1015.1 |
| 20260901164320 | 70 | 189 | 0.0 | 1.0 | 0.00 | 0.00 | 0.00 | 10 | 1014.8 |
| 20260901163814 | 71 | 166 | 0.0 | 0.0 | 0.00 | 0.00 | 0.00 | 10 | 1015.2 |
| 20260901163309 | 70 | 181 | 0.0 | 0.0 | 0.00 | 0.00 | 0.00 | 10 | 1015.2 |
| 20260901162804 | 69 | 155 | 0.0 | 1.0 | 0.00 | 0.00 | 0.00 | 10 | 1015.3 |
| 20260901162306 | 69 | 162 | 0.0 | 2.0 | 0.00 | 0.00 | 0.00 | 10 | 1015.1 |
| 20260901161802 | 70 | 158 | 0.0 | 1.0 | 0.00 | 0.00 | 0.00 | 10 | 1015.3 |
| 20260901161256 | 69 | 114 | 0.0 | 0.0 | 0.00 | 0.00 | 0.00 | 10 | 1015.1 |
| 20260901160752 | 69 | 176 | 0.0 | 0.0 | 0.00 | 0.00 | 0.00 | 10 | 1015.2 |
| 20260901160248 | 67 | 122 | 0.0 | 0.0 | 0.00 | 0.00 | 0.00 | 10 | 1015.3 |
| 20260901155747 | 67 | 137 | 0.0 | 0.0 | 0.00 | 0.00 | 0.00 | 10 | 1015.4 |
| 20260901155242 | 67 | 192 | 0.0 | 0.0 | 0.00 | 0.00 | 0.00 | 10 | 1015.3 |
| 20260901154738 | 67 | 101 | 0.0 | 0.0 | 0.00 | 0.00 | 0.00 | 10 | 1015.4 |
| 20260901154232 | 68 | 74 | 0.0 | 0.0 | 0.00 | 0.00 | 0.00 | 10 | 1015.6 |
| 20260901153727 | 66 | 83 | 0.0 | 0.0 | 0.00 | 0.00 | 0.00 | 10 | 1015.6 |
| 20260901153226 | 66 | 89 | 0.0 | 0.0 | 0.00 | 0.00 | 0.00 | 10 | 1015.6 |
| 20260901152721 | 65 | 91 | 0.0 | 0.0 | 0.00 | 0.00 | 0.00 | 10 | 1015.7 |
| 20260901152220 | 66 | 55 | 0.0 | 0.0 | 0.00 | 0.00 | 0.00 | 10 | 1015.7 |
| 20260901151715 | 66 | 63 | 0.0 | 0.0 | 0.00 | 0.00 | 0.00 | 10 | 1015.6 |
| 20260901151215 | 64 | 70 | 0.0 | 0.0 | 0.00 | 0.00 | 0.00 | 10 | 1015.8 |
| 20260901150709 | 64 | 77 | 0.0 | 0.0 | 0.00 | 0.00 | 0.00 | 10 | 1015.6 |
| 20260901150207 | 63 | 62 | 0.0 | 0.0 | 0.00 | 0.00 | 0.00 | 10 | 1015.7 |
| 20260901145705 | 62 | 58 | 0.0 | 0.0 | 0.00 | 0.00 | 0.00 | 10 | 1015.6 |
| 20260901145200 | 62 | 61 | 0.0 | 0.0 | 0.00 | 0.00 | 0.00 | 10 | 1015.6 |
| 20260901144655 | 60 | 64 | 0.0 | 0.0 | 0.00 | 0.00 | 0.00 | 10 | 1015.5 |
| 20260901144150 | 57 | 52 | 0.0 | 0.0 | 0.00 | 0.00 | 0.00 | 10 | 1015.8 |
| 20260901143645 | 56 | 46 | 0.0 | 0.0 | 0.00 | 0.00 | 0.00 | 10 | 1015.5 |
| 20260901143142 | 56 | 52 | 0.0 | 0.0 | 0.00 | 0.00 | 0.00 | 10 | 1015.5 |
| 20260901142638 | 56 | 51 | 0.0 | 0.0 | 0.00 | 0.00 | 0.00 | 10 | 1015.6 |
| 20260901142137 | 56 | 59 | 0.0 | 0.0 | 0.00 | 0.00 | 0.00 | 10 | 1015.5 |
| 20260901141632 | 57 | 63 | 0.0 | 0.0 | 0.00 | 0.00 | 0.00 | 10 | 1015.6 |
| 20260901141131 | 54 | 56 | 0.0 | 0.0 | 0.00 | 0.00 | 0.00 | 10 | 1015.4 |
| 20260901140630 | 53 | 51 | 0.0 | 0.0 | 0.00 | 0.00 | 0.00 | 10 | 1015.4 |
| 20260901140129 | 52 | 56 | 0.0 | 0.0 | 0.00 | 0.00 | 0.00 | 10 | 1015.3 |
| 20260901135624 | 51 | 54 | 0.0 | 0.0 | 0.00 | 0.00 | 0.00 | 10 | 1015.3 |
| 20260901135119 | 50 | 46 | 0.0 | 0.0 | 0.00 | 0.00 | 0.00 | 10 | 1015.5 |
| 20260901134615 | 50 | 42 | 0.0 | 0.0 | 0.00 | 0.00 | 0.00 | 10 | 1015.5 |
| 20260901134110 | 49 | 38 | 0.0 | 0.0 | 0.00 | 0.00 | 0.00 | 10 | 1015.3 |
| 20260901133609 | 48 | 41 | 0.0 | 0.0 | 0.00 | 0.00 | 0.00 | 10 | 1015.3 |
| 20260901133108 | 48 | 37 | 0.0 | 0.0 | 0.00 | 0.00 | 0.00 | 10 | 1015.3 |
| 20260901132603 | 47 | 8 | 0.0 | 0.0 | 0.00 | 0.00 | 0.00 | 10 | 1015.3 |
| 20260901132056 | 46 | 4 | 0.0 | 0.0 | 0.00 | 0.00 | 0.00 | 10 | 1015.4 |
| 20260901131551 | 44 | 25 | 0.0 | 0.0 | 0.00 | 0.00 | 0.00 | 10 | 1015.5 |
| 20260901131045 | 45 | 8 | 0.0 | 0.0 | 0.00 | 0.00 | 0.00 | 10 | 1015.4 |
| 20260901130540 | 45 | 12 | 0.0 | 0.0 | 0.00 | 0.00 | 0.00 | 10 | 1015.4 |
| 20260901130039 | 44 | 2 | 0.0 | 0.0 | 0.00 | 0.00 | 0.00 | 10 | 1015.3 |
| 20260901125537 | 44 | 349 | 0.0 | 0.0 | 0.00 | 0.00 | 0.00 | 10 | 1015.3 |
| 20260901125033 | 42 | 13 | 0.0 | 0.0 | 0.00 | 0.00 | 0.00 | 10 | 1015.4 |
| 20260901124532 | 42 | 16 | 0.0 | 0.0 | 0.00 | 0.00 | 0.00 | 10 | 1015.5 |
| 20260901124027 | 42 | 10 | 0.0 | 0.0 | 0.00 | 0.00 | 0.00 | 10 | 1015.4 |
| 20260901123522 | 43 | 25 | 0.0 | 0.0 | 0.00 | 0.00 | 0.00 | 10 | 1015.5 |
| 20260901123016 | 44 | 33 | 0.0 | 0.0 | 0.00 | 0.00 | 0.00 | 10 | 1015.4 |
| 20260901122515 | 46 | 10 | 0.0 | 0.0 | 0.00 | 0.00 | 0.00 | 10 | 1015.5 |
| 20260901122014 | 47 | 40 | 0.0 | 0.0 | 0.00 | 0.00 | 0.00 | 10 | 1015.5 |
| 20260901121508 | 47 | 46 | 0.0 | 0.0 | 0.00 | 0.00 | 0.00 | 10 | 1015.4 |
| 20260901121003 | 47 | 39 | 0.0 | 0.0 | 0.00 | 0.00 | 0.00 | 10 | 1015.5 |
| 20260901120458 | 47 | 53 | 0.0 | 0.0 | 0.00 | 0.00 | 0.00 | 10 | 1015.4 |
| 20260901115953 | 47 | 42 | 0.0 | 0.0 | 0.00 | 0.00 | 0.00 | 10 | 1015.6 |
| 20260901115448 | 47 | 45 | 0.0 | 0.0 | 0.00 | 0.00 | 0.00 | 10 | 1015.5 |
| 20260901114946 | 48 | 51 | 0.0 | 0.0 | 0.00 | 0.00 | 0.00 | 10 | 1015.5 |
| 20260901114441 | 49 | 48 | 0.0 | 0.0 | 0.00 | 0.00 | 0.00 | 10 | 1015.6 |
| 20260901113939 | 49 | 50 | 0.0 | 0.0 | 0.00 | 0.00 | 0.00 | 10 | 1015.8 |
| 20260901113438 | 49 | 44 | 0.0 | 0.0 | 0.00 | 0.00 | 0.00 | 10 | 1015.7 |
| 20260901112934 | 48 | 39 | 0.0 | 0.0 | 0.00 | 0.00 | 0.00 | 10 | 1015.5 |
| 20260901112429 | 48 | 10 | 0.0 | 0.0 | 0.00 | 0.00 | 0.00 | 10 | 1015.7 |
| 20260901111924 | 48 | 29 | 0.0 | 0.0 | 0.00 | 0.00 | 0.00 | 10 | 1015.6 |
| 20260901111423 | 48 | 42 | 0.0 | 0.0 | 0.00 | 0.00 | 0.00 | 10 | 1015.6 |
| 20260901110921 | 48 | 47 | 0.0 | 0.0 | 0.00 | 0.00 | 0.00 | 10 | 1015.6 |
| 20260901110417 | 48 | 47 | 0.0 | 0.0 | 0.00 | 0.00 | 0.00 | 10 | 1015.5 |
| 20260901105913 | 48 | 45 | 0.0 | 0.0 | 0.00 | 0.00 | 0.00 | 10 | 1015.9 |
| 20260901105408 | 48 | 22 | 0.0 | 0.0 | 0.00 | 0.00 | 0.00 | 10 | 1015.7 |
| 20260901104904 | 48 | 42 | 0.0 | 0.0 | 0.00 | 0.00 | 0.00 | 10 | 1015.6 |
| 20260901104359 | 48 | 21 | 0.0 | 0.0 | 0.00 | 0.00 | 0.00 | 10 | 1015.5 |
| 20260901103854 | 48 | 28 | 0.0 | 0.0 | 0.00 | 0.00 | 0.00 | 10 | 1015.7 |
| 20260901103348 | 49 | 33 | 0.0 | 0.0 | 0.00 | 0.00 | 0.00 | 10 | 1015.8 |
| 20260901102843 | 49 | 34 | 0.0 | 0.0 | 0.00 | 0.00 | 0.00 | 10 | 1015.9 |
| 20260901102338 | 49 | 39 | 0.0 | 0.0 | 0.00 | 0.00 | 0.00 | 10 | 1015.9 |
| 20260901101834 | 49 | 30 | 0.0 | 0.0 | 0.00 | 0.00 | 0.00 | 10 | 1015.8 |
| 20260901101333 | 48 | 36 | 0.0 | 0.0 | 0.00 | 0.00 | 0.00 | 10 | 1016.1 |
| 20260901100832 | 49 | 43 | 0.0 | 0.0 | 0.00 | 0.00 | 0.00 | 10 | 1015.8 |
| 20260901100327 | 48 | 48 | 0.0 | 0.0 | 0.00 | 0.00 | 0.00 | 10 | 1016.1 |
| 20260901095827 | 49 | 58 | 0.0 | 0.0 | 0.00 | 0.00 | 0.00 | 10 | 1015.9 |
| 20260901095324 | 50 | 51 | 0.0 | 0.0 | 0.00 | 0.00 | 0.00 | 10 | 1015.8 |
| 20260901094818 | 50 | 53 | 0.0 | 0.0 | 0.00 | 0.00 | 0.00 | 10 | 1015.9 |
| 20260901094313 | 50 | 50 | 0.0 | 0.0 | 0.00 | 0.00 | 0.00 | 10 | 1015.8 |
| 20260901093808 | 50 | 36 | 0.0 | 0.0 | 0.00 | 0.00 | 0.00 | 10 | 1016.2 |
| 20260901093307 | 50 | 51 | 0.0 | 0.0 | 0.00 | 0.00 | 0.00 | 10 | 1015.9 |
| 20260901092803 | 50 | 55 | 0.0 | 0.0 | 0.00 | 0.00 | 0.00 | 10 | 1015.9 |
| 20260901092259 | 50 | 55 | 0.0 | 0.0 | 0.00 | 0.00 | 0.00 | 10 | 1015.8 |
| 20260901091755 | 51 | 65 | 0.0 | 0.0 | 0.00 | 0.00 | 0.00 | 10 | 1016.1 |
| 20260901091249 | 50 | 63 | 0.0 | 0.0 | 0.00 | 0.00 | 0.00 | 10 | 1016.1 |
| 20260901090744 | 51 | 62 | 0.0 | 0.0 | 0.00 | 0.00 | 0.00 | 10 | 1015.9 |
| 20260901090239 | 51 | 64 | 0.0 | 0.0 | 0.00 | 0.00 | 0.00 | 10 | 1015.9 |
| 20260901085735 | 51 | 63 | 0.0 | 0.0 | 0.00 | 0.00 | 0.00 | 10 | 1016.1 |
| 20260901085230 | 51 | 67 | 0.0 | 0.0 | 0.00 | 0.00 | 0.00 | 10 | 1016.1 |
| 20260901084727 | 51 | 66 | 0.0 | 0.0 | 0.00 | 0.00 | 0.00 | 10 | 1015.9 |
| 20260901084223 | 52 | 77 | 0.0 | 0.0 | 0.00 | 0.00 | 0.00 | 10 | 1016.1 |
| 20260901083717 | 51 | 80 | 0.0 | 0.0 | 0.00 | 0.00 | 0.00 | 10 | 1015.9 |
| 20260901083216 | 50 | 76 | 0.0 | 0.0 | 0.00 | 0.00 | 0.00 | 10 | 1016.1 |
| 20260901082715 | 54 | 63 | 0.0 | 0.0 | 0.00 | 0.00 | 0.00 | 10 | 1016.1 |
| 20260901082211 | 53 | 63 | 0.0 | 0.0 | 0.00 | 0.00 | 0.00 | 10 | 1016.2 |
| 20260901081707 | 53 | 63 | 0.0 | 0.0 | 0.00 | 0.00 | 0.00 | 10 | 1015.8 |
| 20260901081206 | 52 | 62 | 0.0 | 0.0 | 0.00 | 0.00 | 0.00 | 10 | 1015.9 |
| 20260901080701 | 53 | 57 | 0.0 | 0.0 | 0.00 | 0.00 | 0.00 | 10 | 1016.1 |
| 20260901080200 | 53 | 60 | 0.0 | 0.0 | 0.00 | 0.00 | 0.00 | 10 | 1015.9 |
| 20260901075655 | 53 | 48 | 0.0 | 0.0 | 0.00 | 0.00 | 0.00 | 10 | 1015.8 |
| 20260901075154 | 53 | 49 | 0.0 | 0.0 | 0.00 | 0.00 | 0.00 | 10 | 1015.8 |
| 20260901074654 | 52 | 47 | 0.0 | 0.0 | 0.00 | 0.00 | 0.00 | 10 | 1016.1 |
| 20260901074149 | 52 | 47 | 0.0 | 0.0 | 0.00 | 0.00 | 0.00 | 10 | 1016.2 |
| 20260901073645 | 52 | 37 | 0.0 | 0.0 | 0.00 | 0.00 | 0.00 | 10 | 1016.1 |
| 20260901073141 | 54 | 37 | 0.0 | 0.0 | 0.00 | 0.00 | 0.00 | 10 | 1016.3 |
| 20260901072636 | 53 | 36 | 0.0 | 0.0 | 0.00 | 0.00 | 0.00 | 10 | 1016.1 |
| 20260901072131 | 55 | 48 | 0.0 | 0.0 | 0.00 | 0.00 | 0.00 | 10 | 1016.2 |
| 20260901071625 | 54 | 48 | 0.0 | 0.0 | 0.00 | 0.00 | 0.00 | 10 | 1016.2 |
| 20260901071124 | 53 | 48 | 0.0 | 0.0 | 0.00 | 0.00 | 0.00 | 10 | 1016.3 |
| 20260901070619 | 51 | 48 | 0.0 | 0.0 | 0.00 | 0.00 | 0.00 | 10 | 1016.1 |
| 20260901070114 | 52 | 49 | 0.0 | 0.0 | 0.00 | 0.00 | 0.00 | 10 | 1016.4 |
| 20260901065608 | 53 | 48 | 0.0 | 0.0 | 0.00 | 0.00 | 0.00 | 10 | 1016.4 |
| 20260901065103 | 53 | 51 | 0.0 | 0.0 | 0.00 | 0.00 | 0.00 | 10 | 1016.2 |
| 20260901064600 | 53 | 52 | 0.0 | 0.0 | 0.00 | 0.00 | 0.00 | 10 | 1016.4 |
| 20260901064056 | 53 | 51 | 0.0 | 0.0 | 0.00 | 0.00 | 0.00 | 10 | 1016.6 |
| 20260901063553 | 53 | 52 | 0.0 | 0.0 | 0.00 | 0.00 | 0.00 | 10 | 1016.3 |
| 20260901063049 | 54 | 55 | 0.0 | 0.0 | 0.00 | 0.00 | 0.00 | 10 | 1016.4 |
| 20260901062544 | 55 | 57 | 0.0 | 0.0 | 0.00 | 0.00 | 0.00 | 10 | 1016.3 |
| 20260901062040 | 56 | 60 | 0.0 | 0.0 | 0.00 | 0.00 | 0.00 | 10 | 1016.2 |
| 20260901061537 | 57 | 77 | 0.0 | 0.0 | 0.00 | 0.00 | 0.00 | 10 | 1016.1 |
| 20260901061036 | 58 | 144 | 0.0 | 0.0 | 0.00 | 0.00 | 0.00 | 10 | 1016.3 |
| 20260901060531 | 59 | 186 | 0.0 | 0.0 | 0.00 | 0.00 | 0.00 | 10 | 1016.2 |
| 20260901060026 | 58 | 181 | 0.0 | 0.0 | 0.00 | 0.00 | 0.00 | 10 | 1016.2 |
| 20260901055521 | 58 | 181 | 0.0 | 0.0 | 0.00 | 0.00 | 0.00 | 10 | 1016.2 |
| 20260901055018 | 58 | 131 | 0.0 | 0.0 | 0.00 | 0.00 | 0.00 | 10 | 1016.4 |
| 20260901054515 | 57 | 216 | 0.0 | 0.0 | 0.00 | 0.00 | 0.00 | 10 | 1016.4 |
| 20260901054011 | 57 | 148 | 0.0 | 0.0 | 0.00 | 0.00 | 0.00 | 10 | 1016.4 |
| 20260901053506 | 57 | 162 | 0.0 | 0.0 | 0.00 | 0.00 | 0.00 | 10 | 1016.3 |
| 20260901053002 | 56 | 112 | 0.0 | 0.0 | 0.00 | 0.00 | 0.00 | 10 | 1016.5 |
| 20260901052458 | 57 | 63 | 0.0 | 0.0 | 0.00 | 0.00 | 0.00 | 10 | 1016.3 |
| 20260901051956 | 57 | 177 | 0.0 | 0.0 | 0.00 | 0.00 | 0.00 | 10 | 1016.3 |
| 20260901051452 | 54 | 95 | 0.0 | 0.0 | 0.00 | 0.00 | 0.00 | 10 | 1016.4 |
| 20260901050951 | 56 | 67 | 0.0 | 0.0 | 0.00 | 0.00 | 0.00 | 10 | 1016.4 |
| 20260901050447 | 56 | 102 | 0.0 | 0.0 | 0.00 | 0.00 | 0.00 | 10 | 1016.4 |
| 20260901045946 | 55 | 15 | 0.0 | 0.0 | 0.00 | 0.00 | 0.00 | 10 | 1016.4 |
| 20260901045442 | 56 | 43 | 0.0 | 0.0 | 0.00 | 0.00 | 0.00 | 10 | 1016.5 |
| 20260901044937 | 57 | 75 | 0.0 | 0.0 | 0.00 | 0.00 | 0.00 | 10 | 1016.4 |
| 20260901044432 | 58 | 81 | 0.0 | 0.0 | 0.00 | 0.00 | 0.00 | 10 | 1016.7 |
| 20260901043928 | 57 | 85 | 0.0 | 0.0 | 0.00 | 0.00 | 0.00 | 10 | 1016.6 |
| 20260901043425 | 58 | 81 | 0.0 | 0.0 | 0.00 | 0.00 | 0.00 | 10 | 1016.5 |
| 20260901042924 | 57 | 136 | 0.0 | 0.0 | 0.00 | 0.00 | 0.00 | 10 | 1016.4 |
| 20260901042419 | 59 | 183 | 0.0 | 0.0 | 0.00 | 0.00 | 0.00 | 10 | 1016.5 |
| 20260901041914 | 59 | 164 | 0.0 | 0.0 | 0.00 | 0.00 | 0.00 | 10 | 1016.6 |
| 20260901041414 | 58 | 193 | 0.0 | 0.0 | 0.00 | 0.00 | 0.00 | 10 | 1016.6 |
| 20260901040913 | 55 | 143 | 0.0 | 0.0 | 0.00 | 0.00 | 0.00 | 10 | 1016.6 |
| 20260901040408 | 55 | 39 | 0.0 | 0.0 | 0.00 | 0.00 | 0.00 | 10 | 1016.5 |
| 20260901035902 | 56 | 54 | 0.0 | 0.0 | 0.00 | 0.00 | 0.00 | 10 | 1016.5 |
| 20260901035401 | 55 | 54 | 0.0 | 0.0 | 0.00 | 0.00 | 0.00 | 10 | 1016.4 |
| 20260901034859 | 55 | 54 | 0.0 | 0.0 | 0.00 | 0.00 | 0.00 | 10 | 1016.4 |
| 20260901034354 | 56 | 54 | 0.0 | 0.0 | 0.00 | 0.00 | 0.00 | 10 | 1016.4 |
| 20260901033849 | 56 | 61 | 0.0 | 0.0 | 0.00 | 0.00 | 0.00 | 10 | 1016.1 |
| 20260901033348 | 57 | 66 | 0.0 | 0.0 | 0.00 | 0.00 | 0.00 | 10 | 1016.2 |
| 20260901032847 | 56 | 77 | 0.0 | 0.0 | 0.00 | 0.00 | 0.00 | 10 | 1016.1 |
| 20260901032346 | 56 | 64 | 0.0 | 0.0 | 0.00 | 0.00 | 0.00 | 10 | 1015.8 |
| 20260901031842 | 57 | 68 | 0.0 | 0.0 | 0.00 | 0.00 | 0.00 | 10 | 1016.2 |
| 20260901031338 | 57 | 80 | 0.0 | 0.0 | 0.00 | 0.00 | 0.00 | 10 | 1016.1 |
| 20260901030837 | 57 | 61 | 0.0 | 0.0 | 0.00 | 0.00 | 0.00 | 10 | 1015.8 |
| 20260901030333 | 58 | 51 | 0.0 | 0.0 | 0.00 | 0.00 | 0.00 | 10 | 1015.9 |
| 20260901025831 | 59 | 42 | 0.0 | 0.0 | 0.00 | 0.00 | 0.00 | 10 | 1015.8 |
| 20260901025326 | 60 | 30 | 0.0 | 0.0 | 0.00 | 0.00 | 0.00 | 10 | 1015.9 |
| 20260901024821 | 61 | 84 | 0.0 | 0.0 | 0.00 | 0.00 | 0.00 | 10 | 1015.8 |
| 20260901024321 | 64 | 105 | 0.0 | 0.0 | 0.00 | 0.00 | 0.00 | 10 | 1015.9 |
| 20260901023819 | 63 | 187 | 0.0 | 0.0 | 0.00 | 0.00 | 0.00 | 10 | 1015.8 |
| 20260901023314 | 62 | 188 | 0.0 | 0.0 | 0.00 | 0.00 | 0.00 | 10 | 1015.7 |
| 20260901022809 | 65 | 134 | 0.0 | 1.0 | 0.00 | 0.00 | 0.00 | 10 | 1015.5 |
| 20260901022306 | 65 | 178 | 0.0 | 1.0 | 0.00 | 0.00 | 0.00 | 10 | 1015.8 |
| 20260901021800 | 65 | 187 | 0.0 | 1.0 | 0.00 | 0.00 | 0.00 | 10 | 1015.6 |
| 20260901021256 | 67 | 105 | 0.0 | 0.0 | 0.00 | 0.00 | 0.00 | 10 | 1015.8 |
| 20260901020750 | 67 | 177 | 0.0 | 0.0 | 0.00 | 0.00 | 0.00 | 10 | 1015.7 |
| 20260901020246 | 67 | 183 | 0.0 | 0.0 | 0.00 | 0.00 | 0.00 | 10 | 1015.8 |
| 20260901015741 | 68 | 201 | 0.0 | 0.0 | 0.00 | 0.00 | 0.00 | 10 | 1015.8 |
| 20260901015237 | 69 | 194 | 0.0 | 0.0 | 0.00 | 0.00 | 0.00 | 10 | 1015.6 |
| 20260901014736 | 70 | 197 | 0.0 | 0.0 | 0.00 | 0.00 | 0.00 | 10 | 1015.8 |
| 20260901014232 | 71 | 209 | 0.0 | 0.0 | 0.00 | 0.00 | 0.00 | 10 | 1015.6 |
| 20260901013727 | 73 | 181 | 0.0 | 0.0 | 0.00 | 0.00 | 0.00 | 10 | 1015.4 |
| 20260901013223 | 73 | 245 | 0.0 | 0.0 | 0.00 | 0.00 | 0.00 | 10 | 1015.5 |
| 20260901012718 | 73 | 265 | 0.0 | 0.0 | 0.00 | 0.00 | 0.00 | 10 | 1015.5 |
| 20260901012218 | 74 | 252 | 0.0 | 0.0 | 0.00 | 0.00 | 0.00 | 10 | 1015.9 |
| 20260901011714 | 74 | 11 | 0.0 | 0.0 | 0.00 | 0.00 | 0.00 | 10 | 1015.7 |
| 20260901011214 | 74 | 244 | 0.0 | 0.0 | 0.00 | 0.00 | 0.00 | 10 | 1015.9 |